Terminal Aerodrome Forecast
Issued by NWS Denver/Boulder, CO

Home | Current Version | Previous Version | Text Only | Print | Product List | Glossary On
Versions: 1 2 3 4 5 6 7 8 9 10 11 12 13 14 15 16 17 18 19 20 21 22 23 24 25 26 27 28 29 30 31 32 33 34 35 36 37 38 39 40 41 42 43 44 45 46 47 48 49 50
000
FTUS45 KBOU 051748 AAA
TAFDEN
TAF AMD
KDEN 051748Z 0518/0624 04006KT P6SM SCT110 BKN200
     FM052000 09006KT P6SM BKN200
     FM060200 20008KT P6SM SCT200
     FM060900 21010KT P6SM FEW200=

USA.gov is the U.S. government's official web portal to all federal, state and local government web resources and services.